Orbital Elements at Epoch 2459200.5 (2020-Dec-17.0) TDB
Reference: JPL 32 (heliocentric ecliptic J2000)
Element | Value | Uncertainty (1-sigma) | Units |
e | .01016726403507572 | 2.0301e-08 | |
a | 2.572250655122112 | 8.8404e-09 | au |
q | 2.546097903547089 | 5.2834e-08 | au |
i | 9.188285435253697 | 1.0594e-06 | deg |
node | 186.393885020556 | 5.2658e-06 | deg |
peri | 73.75538021657844 | 6.8096e-05 | deg |
M | 231.3917871223427 | 6.8239e-05 | deg |
tp | 2459738.812617348875 (2022-Jun-08.31261735) | 0.00028672 | TDB |
period | 1506.844220205023 4.13 | 7.7681e-06 2.127e-08 | d yr |
n | .2389098986961095 | 1.2316e-09 | deg/d |
Q | 2.598403406697135 | 8.9303e-09 | au |
|
| | Orbit Determination Parameters
Additional Information
|